Location: *
(44.3925°N, 5.4708°E)
Time: 15:59:42
(UTC+00:00)

SL-8 Rocket - Pass Details

Date: 18 September 2019
Orbit: 956 x 991 km, 82.9° (Epoch: 22 October)

Event Time Altitude Azimuth Distance (km) Brightness Sun altitude
Rises 18:58:13 0° 357° (N) 3,671 7.3 -13.9°
Reaches altitude 10° 19:00:55 10° 5° (N) 2,715 6.5 -14.4°
Maximum altitude 19:06:45 41° 75° (ENE) 1,356 4.4 -15.4°
Enters shadow 19:10:33 20° 134° (SE) 2,044 5.2 -16.0°
